RH
16 17 17 16 17 17 18 20 23 26 27 27 28 29 28 29 30 31 34 35 34 33 31 30 28 27 27 26 26 26 27 28 29 30 31 33 34 36 36 36 36 36 35 33 32 30 27 24 20 16 12 10 7 6 5 5 5 4 5 8 17 30 44 58 67 70 67 63 60 56 52 49 47 48 49 49 49 48 47 48 48 48 47 48 50 51 50 48
17 18 18 18 18 18 20 21 23 27 29 29 30 31 32 33 34 34 34 34 34 33 31 30 29 28 28 27 28 29 31 32 33 34 35 35 35 35 35 35 33 31 28 24 20 17 14 10 8 6 4 4 4 5 6 7 7 8 10 17 32 45 54 64 72 73 69 64 61 57 54 53 52 51 50 50 50 49 51 52 52 50 50 50 51 52 52 51
18 18 19 20 20 21 23 24 25 28 30 32 34 35 35 36 37 36 35 34 34 33 31 30 29 29 29 29 30 31 33 34 34 34 34 33 33 32 31 27 23 19 15 13 10 8 6 5 4 4 5 6 7 9 10 11 12 13 19 31 45 55 63 72 76 75 71 67 65 61 58 56 54 52 51 53 54 53 54 55 53 52 51 51 53 53 53 52
18 18 19 21 21 23 24 26 27 28 30 33 36 37 37 37 36 36 36 35 33 33 31 30 30 30 30 31 32 32 32 32 32 31 30 30 27 24 19 15 11 8 7 6 5 5 5 5 6 6 7 8 9 11 12 14 17 23 33 48 64 72 76 81 80 78 75 71 66 61 58 57 57 56 55 57 58 56 56 55 54 54 53 53 53 54 54 54
18 19 21 22 23 24 25 27 27 28 29 30 33 34 35 34 34 34 34 33 32 32 31 32 32 32 33 33 33 32 32 32 31 29 26 22 17 12 8 6 5 4 4 4 4 5 6 7 7 8 9 10 12 14 16 21 28 41 56 69 84 88 87 86 82 78 74 70 67 62 59 60 62 62 60 59 58 57 56 55 55 55 55 55 54 54 55 55
21 22 23 25 25 26 27 27 28 28 27 28 29 30 30 30 30 31 31 31 31 31 32 33 33 34 34 33 33 33 32 31 26 21 15 10 7 5 4 3 3 4 5 5 6 7 8 9 10 11 12 14 16 20 28 39 50 65 80 88 92 91 87 83 77 72 70 69 69 67 64 64 64 63 61 59 58 58 57 56 56 56 56 56 55 55 54 54
23 24 24 24 24 24 25 26 26 26 27 27 27 27 27 27 28 29 30 31 32 32 32 32 32 33 33 33 31 29 25 20 14 9 6 4 3 3 3 4 5 6 7 8 9 10 11 12 14 16 18 22 29 38 51 67 79 86 91 91 89 84 79 76 73 71 71 71 70 68 68 65 63 62 60 59 59 60 59 58 57 57 57 57 56 56 55 54
20 20 19 19 19 20 21 23 24 25 25 26 27 28 28 28 29 29 30 31 31 31 31 31 31 31 29 25 21 16 11 7 5 4 3 3 4 4 5 6 8 9 10 11 12 15 17 19 23 26 32 40 50 62 73 82 87 86 84 82 82 80 77 76 75 73 71 70 69 68 66 64 61 59 59 59 59 59 59 58 58 58 58 58 58 58 57 56
14 14 14 14 15 17 19 20 21 22 24 25 26 27 27 28 28 29 29 29 29 29 28 26 23 20 15 10 7 5 3 3 3 3 4 4 6 7 8 9 10 11 12 14 17 21 24 28 33 38 47 55 63 72 79 81 82 81 81 81 81 80 77 76 73 71 69 68 67 65 62 60 58 57 57 57 57 57 58 58 58 59 61 61 60 60 59 58
10 11 11 12 13 15 17 18 20 21 22 23 24 25 26 26 26 25 24 23 21 18 15 12 9 6 4 3 3 3 3 3 4 5 6 7 8 10 11 12 13 16 19 23 28 33 38 44 51 57 64 70 75 80 81 81 81 80 79 78 76 75 73 71 70 69 67 66 62 58 57 55 55 55 55 57 57 58 61 63 63 62 63 62 61 60 58 58
10 11 11 12 13 14 15 16 17 17 18 18 18 18 17 17 15 14 11 10 8 6 5 3 3 3 2 3 3 3 4 5 6 7 9 11 15 18 21 24 29 34 40 45 51 57 63 68 73 77 80 80 81 81 79 79 79 76 74 73 72 70 69 67 66 64 61 60 57 57 62 62 60 58 57 60 62 62 64 66 64 63 61 60 59 58 56 55
8 8 8 8 8 8 9 9 9 8 9 8 8 7 6 6 5 4 4 3 3 3 3 2 2 3 3 4 4 5 7 9 12 17 22 29 35 39 44 49 54 60 66 69 73 77 80 81 82 85 85 82 81 81 81 80 78 76 75 76 76 73 70 68 66 65 64 65 64 66 72 73 69 67 64 63 64 63 64 64 63 62 61 60 58 57 56 54
4 4 3 4 3 3 3 3 3 3 3 3 3 3 3 3 2 2 2 2 2 2 3 3 4 4 5 6 9 13 19 26 34 41 48 54 58 62 66 70 73 78 80 81 84 84 85 85 84 85 85 85 87 88 87 87 87 87 86 85 86 83 78 75 74 72 72 73 73 72 74 75 73 70 68 66 64 64 63 62 61 60 59 58 57 56 55 53
2 3 2 3 3 3 3 3 3 3 3 3 3 3 3 3 3 3 3 4 4 4 5 5 7 9 13 19 26 35 45 53 58 63 67 70 74 78 81 83 84 87 86 86 89 88 91 92 91 92 93 95 98 97 96 97 98 99 94 91 92 90 84 82 80 78 75 74 73 72 72 72 71 68 65 64 62 61 60 59 58 57 56 55 54 54 52 51
2 3 3 3 3 4 4 4 4 4 4 4 4 4 4 5 5 5 6 6 6 8 9 13 19 25 34 41 47 55 63 67 70 74 78 81 85 88 91 91 92 94 94 96 97 96 99 100 100 100 99 99 99 98 99 99 98 97 94 89 87 86 85 84 81 78 75 73 71 69 69 68 67 65 62 61 59 58 57 56 55 54 54 53 53 52 50 48
3 3 3 3 3 4 4 4 4 4 5 5 5 5 6 7 7 8 10 12 15 19 24 32 38 44 53 58 61 67 71 74 77 80 84 87 91 93 94 95 96 98 98 100 101 101 100 100 100 101 101 101 99 97 95 92 91 91 89 85 82 79 79 78 75 72 70 69 67 66 66 65 64 63 61 61 59 57 57 55 54 53 52 51 50 48 46 44
3 3 3 4 3 4 4 4 5 5 6 6 7 8 9 11 13 17 21 25 32 37 43 49 51 57 64 66 68 72 74 78 82 85 89 92 95 97 97 98 99 99 99 101 101 101 100 99 99 98 98 98 97 94 89 84 81 81 80 79 77 75 72 71 69 68 66 66 66 65 65 63 64 63 61 60 57 55 53 51 49 48 46 45 44 43 41 40
4 4 5 4 5 6 5 6 7 7 9 9 12 14 18 21 24 31 37 43 47 51 55 55 54 62 65 65 71 77 80 87 91 94 97 99 100 100 100 102 101 100 101 101 100 99 97 96 94 91 88 88 87 85 80 77 74 73 72 70 69 68 66 65 64 64 63 62 62 61 59 58 57 56 54 53 51 49 46 45 43 42 41 40 39 38 37 37
5 6 7 7 8 9 10 12 12 14 15 17 20 24 30 34 37 42 47 51 52 54 58 60 65 73 75 78 87 92 95 98 99 99 100 100 100 99 98 98 96 95 94 93 91 90 88 86 85 82 79 79 77 75 71 69 68 65 63 62 60 59 58 58 56 55 55 53 52 51 49 48 48 46 45 45 44 43 41 40 39 38 38 36 36 35 35 35
7 8 10 12 14 16 20 22 24 26 27 29 31 35 41 44 45 48 51 55 60 64 69 75 85 91 91 93 96 98 98 97 94 93 94 94 93 92 91 90 88 86 85 84 82 80 78 76 74 71 69 67 65 63 61 59 58 56 54 53 52 51 50 49 48 47 46 45 44 43 43 43 42 41 40 40 39 38 37 36 36 35 35 34 33 33 32 31
11 12 14 16 19 23 28 30 35 39 40 44 45 47 52 54 54 58 63 69 75 78 81 85 90 92 91 91 91 91 91 90 88 87 89 89 87 87 85 83 81 78 75 72 70 68 66 64 61 59 57 55 53 52 51 50 49 48 47 46 45 45 44 43 42 41 41 40 40 39 39 39 39 38 37 36 35 34 34 33 32 32 31 30 29 29 28 28
16 17 18 21 24 28 32 35 42 47 53 58 59 63 70 70 70 72 74 77 81 82 83 84 85 86 86 85 86 86 84 83 82 81 81 80 77 75 72 69 67 65 63 60 58 57 55 53 52 50 48 47 46 46 46 45 43 42 41 40 40 39 39 38 38 38 37 37 37 36 35 35 34 34 33 32 31 30 30 29 28 28 27 27 26 25 24 24
23 25 26 29 32 35 38 43 49 56 64 69 70 75 80 80 81 80 77 78 81 81 80 80 80 80 79 78 78 77 74 71 69 68 68 66 62 60 58 56 55 54 53 51 50 49 47 46 45 43 43 42 41 41 39 39 38 38 37 37 36 36 36 35 35 34 33 33 32 32 32 31 30 29 29 28 27 26 25 24 23 22 22 21 21 20 19 19
33 35 37 38 41 45 49 53 59 64 69 73 75 78 79 79 79 77 75 74 75 74 72 72 71 70 68 68 68 65 63 60 56 55 56 54 52 50 48 46 46 46 45 44 43 42 41 40 39 38 38 37 37 37 36 36 35 35 34 33 33 32 31 31 30 30 30 29 28 28 28 28 27 25 24 23 22 21 20 19 19 18 18 18 17 17 17 17
44 45 47 50 54 59 61 61 65 68 70 72 75 74 72 71 70 68 66 64 64 63 62 61 59 60 59 58 58 56 54 52 50 49 48 47 46 45 44 42 41 41 40 39 38 38 38 37 36 35 35 34 34 33 33 32 32 32 32 31 31 30 30 29 28 27 26 25 24 22 22 23 23 21 19 20 19 19 19 19 18 18 18 18 18 18 18 19
55 57 61 64 67 68 66 65 66 67 69 70 69 67 66 64 62 62 60 58 58 57 56 55 53 54 54 52 52 50 48 46 45 45 44 43 42 42 41 40 38 38 37 37 36 36 35 34 33 32 32 31 31 31 31 31 31 31 30 29 29 27 26 25 23 22 21 20 19 18 18 18 21 20 19 20 20 21 21 21 22 21 21 22 23 24 24 24
66 68 70 70 69 67 65 65 65 65 66 66 65 64 63 62 59 58 57 55 55 53 51 51 51 50 49 48 48 46 46 45 44 42 41 41 41 40 39 38 37 36 34 33 32 32 31 31 31 31 31 31 31 30 30 29 28 27 26 25 24 23 22 21 20 19 19 19 19 19 19 20 23 25 24 25 26 27 27 26 27 26 26 25 24 24 22 21
69 69 68 66 64 63 63 63 63 64 64 63 62 61 60 59 57 56 55 53 52 51 50 50 49 49 48 47 46 44 44 43 42 41 39 38 37 35 35 34 33 33 33 33 34 34 34 34 33 32 31 29 27 26 25 25 24 24 23 22 22 21 21 21 21 22 23 26 27 27 27 28 30 31 29 28 27 26 25 23 22 20 19 18 16 15 14 12
66 64 63 61 60 59 58 59 60 61 61 60 59 59 58 57 56 55 54 52 51 50 50 50 49 48 47 46 45 43 42 40 39 38 37 36 35 34 34 35 35 36 37 38 38 36 33 31 29 28 27 26 24 24 23 23 23 24 25 25 26 26 27 28 28 30 31 32 32 30 28 26 24 23 20 18 17 15 14 13 11 11 10 9 9 8 8 8
62 61 60 59 58 57 57 58 59 59 59 59 58 57 56 55 53 52 51 50 49 48 47 47 46 45 44 43 42 41 39 38 36 35 33 33 33 33 32 31 30 29 28 26 25 25 24 24 25 25 25 26 26 26 26 27 29 30 32 33 34 33 33 32 30 29 27 26 23 20 18 16 14 13 11 10 9 8 8 7 7 7 6 6 7 7 7 8
61 60 59 59 58 59 60 60 59 58 57 56 55 53 52 50 49 47 47 47 46 46 45 44 43 42 41 40 39 37 36 34 33 32 32 31 31 30 30 31 33 33 33 30 28 28 29 30 31 32 33 35 36 36 36 36 37 36 34 33 31 29 27 24 22 19 17 16 15 13 12 12 11 10 9 8 7 7 6 6 6 6 6 7 8 8 8 9
60 59 59 59 58 59 59 58 56 55 54 52 50 48 47 46 45 45 46 46 46 46 44 42 41 39 38 36 35 34 33 32 31 31 32 32 33 35 37 40 42 42 41 40 38 37 37 38 40 42 42 42 42 40 37 35 32 29 26 23 21 18 16 14 13 12 11 12 14 13 10 11 13 13 12 9 7 7 6 6 6 7 8 8 9 9 9 9
59 59 58 58 58 57 56 54 53 51 50 48 46 45 45 45 46 47 47 47 46 44 41 39 37 35 34 33 32 31 30 30 30 30 31 32 33 34 35 35 35 34 35 38 40 42 43 43 43 41 39 37 34 30 27 23 20 18 16 14 12 11 9 9 8 8 9 11 15 15 13 12 13 15 15 9 6 7 7 8 9 10 10 10 9 9 8 9
61 60 59 58 56 55 53 52 51 49 48 47 46 47 48 49 49 47 45 43 41 39 36 36 34 33 32 31 30 30 30 31 31 32 32 33 34 35 36 37 39 41 42 43 43 42 40 37 34 30 27 24 21 18 16 14 13 13 12 10 10 9 9 9 9 9 9 10 16 21 21 20 20 20 16 9 8 10 8 9 11 12 12 10 9 8 7 7
62 60 58 56 54 53 50 49 50 49 50 50 49 49 48 47 46 43 41 39 38 36 34 33 31 31 30 29 30 30 30 31 31 32 34 36 40 42 44 45 45 44 42 39 35 31 28 24 21 19 17 15 15 14 14 15 16 16 16 16 15 14 14 14 15 15 14 14 19 25 29 32 35 33 23 15 14 14 13 15 16 16 15 13 11 9 8 7
60 58 57 55 53 51 50 50 51 52 53 52 49 48 45 43 42 40 38 36 34 32 30 30 29 28 28 28 29 30 30 33 36 38 41 44 45 45 44 41 37 33 29 25 22 20 20 20 18 19 19 18 19 20 21 22 23 23 24 23 22 22 23 23 23 23 21 19 22 28 31 35 41 40 32 28 27 25 27 29 28 26 25 22 20 17 14 12
59 57 55 53 52 52 51 51 52 52 52 48 46 45 43 41 38 35 32 31 30 30 29 29 29 29 30 31 33 36 39 42 45 46 44 43 39 35 32 27 24 21 19 19 19 19 22 25 24 25 26 27 26 28 29 29 30 31 31 30 29 29 29 29 27 26 25 23 24 30 31 32 36 34 31 34 35 34 36 37 35 33 32 29 27 24 21 19
57 55 53 52 53 52 51 51 50 48 46 45 45 43 39 34 31 30 30 30 30 30 30 31 32 33 36 40 44 46 47 46 43 39 35 31 27 24 21 20 18 19 20 22 24 24 26 28 30 30 30 31 30 31 33 34 35 35 34 33 30 29 29 28 28 26 24 23 23 26 28 30 32 29 26 27 30 30 31 32 32 32 31 29 28 26 24 22
55 54 53 53 53 52 51 49 46 45 44 43 40 35 31 30 30 31 31 31 31 32 34 36 40 44 47 49 48 45 42 37 32 28 24 22 21 20 19 20 21 23 26 27 28 29 28 28 30 30 30 30 29 29 30 31 32 31 31 31 29 29 28 27 28 28 25 24 23 22 23 27 29 27 25 23 23 23 24 24 25 25 25 24 24 24 23 22
55 53 52 52 51 49 48 45 43 40 37 34 31 30 31 33 33 33 32 34 36 39 43 46 49 50 49 45 40 35 30 26 23 21 20 20 21 22 24 26 27 28 30 30 29 28 27 25 26 26 27 28 26 25 25 26 27 28 30 32 32 32 31 28 28 29 27 26 25 21 21 23 25 25 24 23 22 21 21 20 20 20 20 20 20 19 19 18
52 51 50 48 46 43 41 39 36 33 31 31 32 34 35 34 34 37 39 43 47 49 51 51 49 45 39 34 29 25 23 21 21 21 22 24 26 27 29 29 29 28 27 26 25 24 23 22 22 24 26 28 25 23 24 27 30 32 33 34 34 33 31 28 26 26 26 26 25 22 20 21 22 22 22 21 20 20 19 17 17 17 17 16 16 15 15 14
49 49 46 43 40 38 35 32 30 31 33 35 35 35 37 39 43 47 51 53 54 54 50 45 39 33 28 25 22 21 22 23 25 27 28 29 30 29 29 27 26 24 23 23 22 22 22 21 21 23 27 29 27 24 26 30 32 34 34 33 33 32 30 28 26 24 23 24 24 21 20 20 20 20 19 18 17 16 15 15 14 13 13 12 12 12 11 11
46 44 40 37 35 32 31 31 33 37 37 36 38 40 45 50 54 57 58 56 52 46 40 33 28 25 22 22 22 24 27 29 30 30 30 30 28 26 25 23 23 22 22 23 23 24 24 22 21 22 25 28 27 25 27 30 30 29 27 26 26 26 26 26 27 25 23 23 23 20 19 19 18 17 17 15 14 14 13 12 12 11 10 9 8 8 8 9
41 37 34 32 32 32 34 36 37 37 37 40 46 53 57 59 60 58 53 47 41 35 30 26 23 22 23 25 28 30 31 31 30 29 28 27 26 24 23 23 23 24 24 24 25 25 25 23 21 19 21 22 20 20 21 22 23 23 22 25 28 28 26 27 27 26 24 23 22 21 18 17 16 14 14 12 11 11 11 11 10 9 8 7 7 7 8 8
35 33 32 34 34 35 36 36 38 41 47 54 60 63 63 59 54 49 42 36 31 27 24 23 24 25 28 30 30 30 29 29 28 27 26 25 25 24 24 25 26 25 25 25 25 25 24 24 21 20 24 25 19 17 18 18 20 21 23 29 34 35 33 30 27 25 23 21 20 19 16 14 13 12 11 10 9 9 9 9 10 9 8 7 6 6 7 7
33 34 36 37 35 36 39 44 52 59 64 67 66 62 57 50 43 38 32 28 26 24 24 25 27 29 30 30 29 28 28 27 26 25 25 26 26 26 26 27 28 27 27 28 27 25 24 24 22 21 28 32 24 20 22 23 23 23 25 29 33 34 33 30 26 24 22 20 17 16 13 11 10 10 9 9 8 8 8 8 8 8 7 6 6 5 5 5
36 36 36 34 37 46 57 65 70 71 69 65 59 51 45 39 34 30 27 25 24 25 27 29 30 30 29 28 28 28 28 27 27 26 27 29 30 30 29 30 31 29 29 31 29 25 25 25 22 21 29 32 25 20 23 26 26 26 27 30 31 30 30 28 25 23 20 18 15 13 12 10 10 9 8 7 7 7 7 7 7 6 5 5 4 4 4 3
35 33 34 41 55 69 75 76 74 68 62 54 46 41 36 33 30 27 26 26 27 29 30 30 30 28 27 27 27 28 29 29 29 27 27 30 31 31 32 34 34 32 34 37 34 28 28 28 22 21 29 31 24 21 25 28 28 28 28 30 29 27 26 24 22 20 18 18 15 12 11 9 8 8 7 6 6 6 6 6 6 5 4 3 3 2 3 3
33 40 52 66 78 81 77 72 65 57 50 44 39 36 32 29 27 26 27 29 30 31 30 28 28 27 27 28 28 29 29 27 26 25 25 29 30 29 31 35 36 34 37 43 41 35 32 32 27 22 26 30 26 24 28 29 27 27 28 29 27 25 25 22 20 19 19 18 15 11 8 7 7 6 6 5 4 4 4 4 4 4 3 2 2 2 2 2
46 64 78 83 82 76 68 60 53 47 43 38 35 32 29 28 28 29 31 31 31 30 28 28 28 28 29 30 30 29 27 26 26 24 25 30 33 31 31 36 39 38 43 50 48 42 39 38 34 26 23 28 27 25 28 29 26 25 26 27 26 24 23 22 20 18 16 13 10 7 6 6 5 5 5 4 4 3 4 4 3 3 2 2 2 2 2 2
74 85 86 80 72 64 56 51 47 42 38 34 31 29 28 29 32 33 33 32 30 30 30 30 31 31 33 33 31 30 28 29 31 30 30 36 40 36 35 41 43 43 51 57 52 48 47 44 40 32 24 25 25 23 25 25 24 23 23 22 20 19 17 17 14 11 9 8 6 5 5 4 4 4 4 3 4 3 3 4 3 2 2 2 2 2 2 2
90 86 78 69 61 54 50 46 42 38 34 32 29 29 32 34 35 35 33 31 31 32 31 32 34 35 36 35 34 34 33 36 41 42 39 43 48 44 43 51 52 49 57 60 54 51 51 46 42 36 27 23 23 22 22 21 21 21 19 16 15 14 13 11 10 8 7 6 5 4 4 4 4 4 3 3 3 3 3 3 2 2 2 2 2 2 2 2
Wind_Speed
42 43 43 43 43 43 43 43 44 44 45 46 46 47 48 48 48 48 49 50 51 51 52 52 53 53 53 53 53 54 54 55 56 57 57 58 59 60 61 62 63 63 64 64 64 64 64 64 64 62 60 58 55 52 50 49 50 49 45 42 41 40 39 38 38 38 39 40 40 40 41 41 41 42 43 44 44 45 44 44 45 45 44 44 46 49 49 49
41 41 41 41 41 41 42 43 43 44 45 47 47 48 48 49 49 50 50 51 51 52 53 53 54 54 54 55 55 55 56 57 58 59 60 60 61 62 63 64 64 64 64 64 63 62 60 59 57 54 51 49 46 43 41 41 40 39 37 34 33 33 33 33 34 36 37 37 38 39 39 40 40 41 41 41 42 42 42 43 45 45 44 42 45 49 50 50
39 40 40 40 41 41 42 43 43 44 46 47 47 48 49 50 50 51 51 52 52 54 54 54 54 55 56 56 56 57 58 59 60 61 62 63 63 63 64 64 63 62 60 59 57 56 54 51 49 46 43 41 38 35 33 32 31 30 29 27 27 28 29 30 32 34 36 36 37 38 38 38 38 39 39 39 41 40 41 44 45 45 44 43 45 49 51 52
38 38 39 40 41 41 42 43 44 45 46 47 48 49 50 51 51 51 52 53 53 54 55 55 56 56 57 58 59 59 60 62 63 63 64 64 64 63 62 60 59 56 53 51 49 49 47 45 42 38 36 33 31 28 27 25 24 23 22 22 24 26 27 29 31 33 34 35 36 36 35 36 36 37 38 38 39 39 41 44 44 45 46 45 46 49 52 54
37 38 39 40 41 42 43 44 45 46 46 47 49 50 51 52 52 52 52 53 54 54 55 56 57 58 59 60 61 61 62 63 63 64 64 63 61 59 56 53 51 48 46 44 43 41 40 37 34 31 28 26 24 22 20 19 18 18 19 20 23 25 27 29 30 32 32 33 34 34 34 34 34 36 38 38 39 41 43 44 44 46 48 49 49 49 52 55
36 38 39 40 41 42 43 44 45 46 47 48 49 50 51 52 52 52 53 54 55 55 56 57 58 59 60 61 62 62 63 63 63 62 60 57 54 51 47 45 42 40 38 36 34 32 30 28 25 23 21 19 18 16 15 14 14 15 18 20 23 25 26 27 28 29 30 30 32 33 33 33 34 37 39 38 39 43 45 45 45 47 50 51 52 52 53 56
37 38 39 41 42 43 44 45 46 47 48 48 49 50 51 52 52 53 54 55 56 56 57 58 59 59 60 61 62 62 61 60 58 55 52 48 44 41 38 36 33 31 28 26 24 22 20 18 16 15 14 13 12 11 10 11 13 15 17 20 22 23 24 25 26 27 27 29 30 32 34 34 35 38 41 39 39 44 46 46 47 48 51 53 55 55 55 57
37 39 40 41 42 43 44 45 46 47 48 49 50 51 52 53 53 54 55 56 57 57 58 58 59 59 60 60 59 57 55 52 48 44 41 38 35 32 29 26 23 21 18 16 14 12 11 10 10 9 8 8 7 7 9 10 13 15 17 18 20 21 22 23 24 25 27 28 30 33 35 36 36 39 43 41 41 45 47 48 48 49 52 55 57 59 59 60
37 39 40 41 42 43 44 45 46 47 48 49 51 52 53 54 55 55 56 56 57 57 57 57 57 56 55 53 50 47 44 40 37 34 30 27 24 21 18 15 13 11 9 8 6 5 5 5 5 4 4 4 5 6 8 9 11 13 14 16 18 20 21 22 24 25 27 28 30 33 37 39 38 41 45 44 44 46 49 50 51 52 54 57 59 61 62 63
38 39 40 41 42 43 44 46 47 48 49 50 51 52 53 54 55 55 55 55 55 54 53 52 50 47 44 41 38 35 32 28 25 22 19 16 13 10 8 6 4 3 2 1 1 1 1 1 1 1 0 1 2 4 6 7 9 11 13 16 18 19 20 22 23 25 27 28 30 34 40 43 42 43 46 47 47 47 49 52 54 55 57 60 60 62 64 65
38 39 40 41 42 44 44 45 46 47 48 49 49 50 50 50 50 50 49 48 46 45 43 40 38 35 32 29 26 23 20 17 14 11 8 5 2 1 1 2 4 5 5 6 6 6 6 6 5 5 4 3 3 4 6 8 10 12 13 16 18 19 21 23 24 27 29 30 31 34 43 49 47 46 47 49 49 48 50 54 57 59 60 62 63 64 66 68
36 37 38 39 39 40 40 41 41 41 42 42 42 42 41 41 40 39 38 36 35 33 31 28 26 23 20 18 15 12 9 6 3 1 3 5 7 8 8 9 10 10 10 10 10 9 9 7 6 6 6 5 5 7 8 10 12 14 15 18 21 21 23 25 27 29 31 32 34 35 42 54 54 50 50 51 51 51 52 56 59 62 63 64 66 67 69 71
30 30 30 30 30 30 30 30 29 29 29 29 29 29 29 28 28 27 26 25 23 22 20 17 15 13 10 8 5 4 5 7 9 11 12 12 12 12 12 12 12 12 12 11 10 9 9 7 7 7 7 7 8 10 11 13 15 17 18 20 24 26 26 27 30 32 33 35 38 36 40 54 60 57 55 54 54 55 56 59 62 64 65 67 68 70 72 74
21 21 21 20 19 19 18 18 18 18 18 18 19 19 19 18 17 17 16 15 14 12 10 8 6 6 7 8 10 13 14 15 15 15 14 14 14 14 13 13 12 12 10 10 9 8 8 7 8 8 8 9 11 12 14 16 18 20 22 24 27 30 31 31 33 35 37 39 43 41 41 51 62 64 61 58 58 59 60 63 64 66 68 70 71 73 75 77
14 14 14 13 13 12 12 11 11 11 11 11 11 11 11 10 9 8 7 7 6 7 8 10 11 13 15 16 17 18 18 17 16 15 15 14 13 12 11 10 10 9 8 7 7 7 7 8 9 10 11 12 14 16 18 19 22 24 26 28 30 33 36 37 37 38 41 44 47 48 45 51 60 65 67 65 64 64 64 66 67 68 70 72 74 76 78 80
10 11 11 11 12 11 11 10 9 9 8 8 8 8 8 8 9 10 11 12 13 15 16 18 19 19 20 19 18 18 17 16 14 14 13 12 11 10 9 8 8 7 7 8 8 9 10 11 12 13 15 16 18 20 22 23 25 28 30 33 34 36 39 42 42 42 44 47 51 53 51 54 59 63 68 69 69 70 70 71 71 71 73 75 78 80 82 83
10 11 12 13 14 13 13 13 12 12 12 12 13 14 15 16 17 19 20 21 21 22 22 22 21 21 20 18 17 16 15 14 12 11 11 10 9 8 8 8 8 7 7 8 9 10 12 14 15 17 19 21 23 24 26 28 30 32 35 37 39 41 42 45 47 48 48 50 54 57 58 60 61 63 66 70 71 73 75 76 77 77 77 79 81 84 85 86
17 18 18 19 19 19 19 19 19 20 20 20 21 22 23 23 24 25 25 25 24 24 22 21 20 19 17 16 15 14 13 12 11 9 8 7 6 6 6 6 6 7 8 10 12 14 15 18 19 21 23 25 27 29 31 32 34 36 39 41 43 46 47 48 50 51 53 55 58 60 63 66 66 66 68 71 73 74 77 79 80 81 82 84 86 88 90 90
25 26 26 27 27 27 27 27 27 27 26 26 27 27 27 27 26 26 25 24 23 22 21 19 18 17 14 13 13 11 10 8 6 5 3 2 3 4 6 8 10 11 13 15 16 18 20 22 24 26 28 30 32 34 36 37 38 41 43 46 47 49 53 55 55 55 56 58 63 65 67 70 70 70 71 73 75 77 79 81 82 84 85 88 90 92 94 95
29 31 32 33 33 34 34 33 32 31 30 29 28 28 28 26 25 24 23 22 21 19 18 17 16 14 12 11 9 7 5 4 2 1 3 5 7 9 11 12 14 16 18 20 21 23 25 27 29 30 32 35 37 39 41 42 43 45 47 50 52 52 55 59 61 61 60 60 64 68 71 74 74 73 74 75 78 80 83 84 85 87 88 90 93 95 97 98
32 33 33 34 35 35 35 35 34 33 32 31 29 29 27 25 23 23 22 20 19 17 16 14 13 11 9 7 6 4 3 3 4 5 7 9 11 13 15 17 19 20 22 24 26 28 29 32 34 36 37 39 42 44 47 47 48 50 52 53 56 56 58 62 65 67 66 65 66 69 74 77 78 77 77 78 81 83 86 88 90 91 92 94 95 97 98 99
33 33 33 33 33 33 33 33 33 33 31 30 28 28 26 23 22 20 19 18 16 14 12 11 9 7 6 5 3 4 6 7 9 10 12 14 16 17 19 21 23 25 27 29 31 32 34 36 39 41 42 43 46 49 51 53 53 54 56 58 60 61 61 64 69 71 72 70 70 72 76 81 82 81 82 83 85 87 88 90 92 93 95 96 97 98 98 99
33 33 32 32 32 32 31 32 31 31 30 28 26 26 24 21 20 17 15 14 13 11 9 7 6 5 4 5 6 7 9 11 13 14 16 18 20 22 23 25 27 29 31 33 35 37 39 41 43 45 47 48 50 53 55 58 59 60 62 62 64 67 66 67 70 74 78 77 76 75 78 83 85 85 86 87 88 90 91 92 93 94 95 96 97 98 99 99
33 32 31 31 31 30 30 29 29 28 27 25 23 22 20 18 17 14 12 10 9 8 6 5 5 6 7 7 9 11 13 15 17 18 20 22 25 27 29 30 32 34 36 39 40 42 44 46 48 50 51 53 55 57 59 62 65 67 68 68 69 71 73 73 73 75 79 81 80 78 78 82 87 87 87 89 91 92 94 95 96 97 97 98 99 100 100 100
32 31 30 30 29 28 26 26 26 25 23 22 20 18 16 14 12 10 9 7 6 6 6 6 6 8 10 11 13 16 17 19 22 24 26 28 30 33 35 36 37 39 41 43 45 47 49 51 53 55 56 58 59 61 63 65 68 70 72 74 74 76 77 78 78 78 80 82 83 82 80 80 86 89 88 90 93 94 96 98 99 100 100 101 102 102 102 102
30 29 28 28 26 25 23 22 21 20 19 17 15 13 11 10 8 7 7 6 7 7 8 10 11 12 14 16 18 21 23 24 26 28 30 32 35 37 40 42 42 44 46 48 50 52 54 56 57 59 61 62 63 65 66 68 70 72 74 76 78 80 81 82 83 83 83 85 85 85 85 82 85 90 90 91 94 95 97 98 99 100 101 102 103 104 105 105
27 26 25 24 22 20 19 18 17 16 14 12 11 9 8 7 6 7 8 8 10 11 12 14 16 17 19 21 23 25 27 29 31 33 34 36 39 41 43 46 47 49 51 52 54 56 57 59 61 62 64 66 67 69 70 72 73 75 77 79 80 82 83 84 85 86 86 88 88 89 90 87 87 91 93 93 94 96 97 99 99 100 101 102 103 104 105 105
23 22 21 19 17 16 15 14 13 12 11 9 8 8 7 8 8 10 11 12 14 15 16 18 20 22 24 26 27 29 31 33 35 37 39 40 43 45 47 49 51 53 55 56 58 60 61 62 64 65 67 69 71 72 73 75 76 78 79 81 83 84 85 86 87 87 87 89 91 92 93 92 91 94 97 96 97 98 98 99 99 99 100 101 102 102 102 103
19 18 16 14 13 12 11 10 10 9 8 8 8 9 9 11 12 14 15 17 18 20 21 23 24 26 28 30 32 34 35 37 39 41 43 45 47 49 50 52 54 55 57 58 60 62 63 65 66 68 70 73 75 76 77 78 79 80 81 83 85 86 86 87 88 88 88 89 93 95 96 96 94 97 100 99 99 99 98 98 98 98 97 97 97 98 98 98
15 13 12 10 9 8 8 9 9 9 9 10 10 12 13 14 15 17 19 20 22 23 24 26 28 30 31 33 35 38 39 41 43 45 46 48 50 51 53 55 57 59 60 60 62 64 66 68 70 72 74 76 78 80 80 81 81 82 83 84 86 88 88 89 90 90 90 91 93 95 96 96 95 96 99 99 99 97 95 95 95 95 94 93 92 92 93 93
10 9 8 7 7 8 9 10 10 10 11 12 13 15 16 18 19 21 22 24 25 27 28 30 31 33 35 36 38 40 43 44 46 48 50 52 54 55 57 59 61 64 66 68 68 69 70 71 72 74 75 77 79 81 83 84 85 85 87 87 88 89 89 89 89 89 88 88 90 92 91 92 93 94 96 97 97 97 95 93 92 91 90 90 90 91 91 91
7 6 6 7 7 8 9 10 11 12 14 15 16 18 20 21 23 25 26 28 30 31 33 34 35 37 38 40 42 44 46 48 50 51 53 55 56 58 59 60 61 62 64 67 70 72 72 73 75 76 78 80 81 82 84 86 88 89 89 90 90 89 87 86 84 84 83 83 85 88 86 86 89 92 95 96 94 94 94 93 91 90 90 90 91 91 91 90
6 6 7 7 9 10 11 12 14 16 17 19 20 22 24 26 28 30 31 32 34 35 37 38 39 41 42 44 45 47 49 50 52 53 54 55 57 58 59 60 61 61 62 65 68 71 74 75 77 78 80 82 82 81 81 82 85 87 88 88 88 88 86 84 82 81 79 77 80 84 84 83 85 88 94 95 91 91 91 90 90 89 89 90 90 90 89 88
7 8 9 10 12 13 15 17 18 20 22 23 25 26 28 30 32 33 35 36 38 39 40 42 43 44 46 47 49 50 51 52 53 54 55 56 58 59 61 62 64 65 66 68 70 73 76 76 77 78 79 80 80 80 80 81 83 85 88 88 87 88 87 85 83 82 80 76 76 80 82 82 82 85 92 93 90 91 89 88 89 89 89 89 89 89 88 86
9 11 12 14 16 17 19 21 22 24 26 27 29 30 32 33 35 36 37 39 40 41 43 44 45 47 48 49 50 51 52 53 54 55 56 57 59 61 63 65 67 69 70 71 71 72 75 76 76 76 78 78 78 79 80 81 83 85 87 88 88 88 88 87 87 87 86 82 78 79 79 79 78 81 89 93 93 94 93 91 92 92 93 93 93 92 91 90
12 14 16 18 20 21 23 24 26 27 29 30 31 33 34 35 37 38 39 40 42 43 45 47 48 49 50 50 51 52 53 54 55 57 58 60 62 64 65 67 68 68 68 68 68 68 69 73 75 76 78 79 78 79 80 81 82 84 86 87 87 87 87 88 88 88 89 85 80 79 78 77 75 76 83 90 92 93 93 93 95 95 96 97 98 98 98 98
16 18 19 21 23 24 25 27 28 29 30 32 33 35 36 37 38 39 41 42 44 45 47 48 49 50 50 51 52 53 55 56 58 60 62 63 65 65 66 66 66 66 65 65 65 65 65 68 72 74 76 78 77 76 77 79 81 82 83 85 85 84 84 85 87 88 88 86 81 79 78 78 76 76 80 84 86 87 88 90 92 93 95 97 99 100 102 103
19 20 22 23 25 26 27 28 30 31 32 33 35 36 37 38 40 41 43 44 45 46 47 48 49 50 51 52 54 56 58 60 61 62 63 64 64 64 63 63 62 62 63 64 64 65 64 63 67 71 73 74 73 71 70 72 75 77 80 83 84 83 81 82 84 88 89 89 86 84 81 78 76 78 82 84 86 87 88 90 91 91 92 94 96 98 100 102
21 22 24 25 27 28 29 31 32 33 33 34 36 37 39 40 41 42 43 44 45 46 47 49 50 52 53 55 57 59 60 60 61 61 61 61 60 61 61 61 61 61 62 63 63 64 63 60 60 64 68 70 70 66 64 65 69 73 76 79 81 81 82 80 80 85 90 91 92 93 88 82 79 80 82 85 87 89 90 91 92 93 93 94 95 96 98 100
23 24 25 27 28 29 31 32 33 34 35 36 38 39 40 41 42 43 44 45 46 47 49 50 52 54 56 58 59 59 59 59 58 58 58 58 58 59 59 60 61 61 61 61 61 60 61 58 55 57 61 65 67 65 64 65 67 69 71 74 77 78 80 81 78 80 86 89 93 98 95 88 85 85 85 87 90 91 92 93 94 95 96 96 97 97 98 99
24 25 27 28 29 30 31 32 34 35 37 38 39 40 40 41 42 44 45 46 48 50 51 53 55 57 58 58 58 57 57 56 56 56 56 57 57 57 58 58 58 58 58 59 60 59 59 57 54 54 58 62 64 63 63 64 65 67 69 72 75 77 80 83 81 80 81 84 90 97 96 91 89 89 90 91 93 94 95 96 96 97 98 98 99 99 100 100
25 27 28 29 31 31 32 34 36 37 38 39 39 40 41 42 43 45 46 48 50 52 55 56 57 58 57 56 55 55 54 54 55 55 56 56 56 56 56 56 56 56 57 58 60 61 61 59 55 54 59 63 64 62 62 62 62 64 68 71 75 78 81 83 84 84 83 83 88 94 94 91 91 91 92 94 95 96 98 99 98 98 98 99 99 99 100 101
26 28 29 30 32 33 34 36 37 37 38 38 39 40 42 43 45 46 48 51 53 55 56 56 56 55 54 53 52 52 53 53 53 54 54 54 54 55 56 57 57 58 59 60 62 63 65 63 59 56 58 60 60 58 57 58 59 61 64 68 73 77 79 81 83 85 85 85 89 94 93 92 92 93 94 95 97 98 99 100 101 101 100 100 99 99 99 99
27 29 30 31 32 34 35 36 36 37 38 39 40 41 43 45 46 49 51 53 54 55 54 53 52 51 50 50 50 50 50 50 51 51 52 54 56 57 59 60 61 61 62 64 65 67 69 70 67 65 65 63 57 52 50 50 53 56 58 62 69 74 77 79 80 83 85 86 89 94 94 94 94 95 96 97 97 97 98 99 101 103 102 100 98 98 99 99
29 30 31 32 33 34 35 36 36 37 38 39 41 43 45 47 49 51 53 53 53 52 51 49 48 48 48 48 48 48 48 49 50 52 54 57 60 61 62 64 65 66 66 68 69 69 71 73 73 72 76 78 71 64 62 59 57 57 58 61 69 75 79 81 81 83 85 87 90 93 96 97 97 97 97 98 97 96 96 98 100 102 102 100 98 96 95 94
29 30 31 33 34 34 35 35 36 37 39 41 43 45 47 49 51 52 52 51 49 48 47 46 46 46 47 47 48 49 49 51 53 55 58 61 64 65 65 67 69 69 70 72 72 71 72 74 73 72 78 84 80 74 74 74 71 67 65 66 71 75 78 81 83 85 87 90 92 94 98 100 100 99 99 99 99 97 96 97 98 99 98 96 93 90 87 85
29 31 32 33 33 33 34 35 36 39 41 43 45 47 49 50 51 50 48 47 45 45 44 44 45 45 46 47 48 51 53 56 57 59 61 64 67 69 70 71 73 73 74 76 76 74 74 75 71 70 76 82 78 73 74 76 76 73 72 73 75 76 78 81 83 86 89 92 93 95 98 100 101 101 101 100 98 97 96 97 97 95 92 89 85 81 79 80
30 31 32 32 32 32 34 36 39 41 43 45 47 49 49 49 47 46 44 43 43 43 43 43 44 44 45 47 49 52 55 58 60 62 64 67 70 71 73 75 77 77 79 81 81 78 77 77 73 70 74 80 77 72 74 76 75 75 76 78 79 79 80 82 84 87 90 93 95 96 98 99 100 101 100 98 96 93 91 91 91 90 87 82 77 74 74 75
30 30 30 30 31 34 36 39 41 43 45 47 48 48 47 45 44 43 42 41 42 42 43 43 45 46 48 50 52 55 56 58 60 62 65 69 72 73 74 78 80 81 83 86 86 83 81 82 79 73 73 78 76 72 75 78 76 75 78 80 81 82 83 85 87 89 92 95 97 98 98 98 99 99 97 94 91 86 82 82 83 82 80 77 74 72 71 71
28 28 29 31 33 36 38 40 43 45 46 47 47 45 43 42 41 41 41 41 42 43 45 46 48 50 52 54 56 59 61 63 66 67 69 73 76 76 77 80 83 84 87 89 89 88 86 86 85 79 74 76 75 72 74 79 77 76 79 81 83 84 84 86 88 90 93 95 96 96 95 95 95 95 93 90 88 84 82 84 83 78 76 74 73 72 70 67
27 29 30 33 35 38 40 42 44 45 46 45 43 41 40 40 40 40 41 42 44 46 47 49 51 53 55 58 61 64 67 70 73 75 76 78 81 82 83 85 87 87 89 91 91 91 91 90 90 86 78 76 76 73 73 76 75 76 78 79 81 83 84 86 88 91 94 95 94 92 92 91 89 89 88 89 88 86 84 84 81 75 74 74 71 69 67 65
28 30 32 35 37 40 41 43 45 45 44 42 40 39 39 39 40 41 43 44 46 48 50 51 54 56 58 61 65 68 71 74 77 80 82 84 87 89 89 90 91 91 91 92 91 92 94 93 93 92 85 80 80 78 76 76 76 75 76 77 80 84 86 87 89 91 94 96 96 94 92 92 92 91 89 87 85 83 82 80 76 71 69 69 67 65 63 61
Wind_Direction
239 241 243 245 246 248 249 251 253 255 256 257 258 259 260 261 262 262 262 263 264 265 266 267 269 270 271 272 273 274 275 276 277 278 280 280 281 282 282 281 281 281 280 279 279 278 277 276 275 275 274 274 273 271 269 267 266 267 266 262 260 259 260 261 262 264 266 267 268 268 267 267 266 266 266 266 266 266 266 265 264 264 263 264 266 268 269 269
241 243 246 248 250 252 254 254 255 256 258 259 260 260 261 262 263 263 264 264 265 267 268 269 271 272 273 275 276 277 278 279 280 281 281 282 282 282 282 282 282 282 281 281 280 279 277 277 277 276 276 275 274 273 270 267 264 262 260 258 256 256 258 259 260 262 264 265 265 266 265 265 265 264 264 264 263 263 263 262 262 262 262 262 264 267 268 269
244 247 250 252 254 255 256 257 258 258 259 260 261 262 262 263 263 264 265 266 267 268 270 271 272 273 275 276 277 278 279 280 281 282 282 282 283 283 283 283 283 282 282 281 280 279 278 278 277 276 276 276 275 272 268 264 260 256 254 253 253 254 256 257 258 260 262 263 264 264 265 265 264 263 261 260 260 260 260 260 261 262 262 261 263 267 269 270
248 251 253 255 256 257 258 259 259 260 261 261 262 262 263 264 264 265 266 268 269 270 272 273 274 276 277 278 279 279 280 281 282 283 283 284 285 285 285 284 283 282 280 278 276 276 276 277 276 275 274 273 270 266 261 256 251 248 247 248 250 253 254 255 257 259 261 263 264 264 263 262 261 261 259 256 257 258 257 259 261 263 264 263 263 266 270 272
252 254 255 257 259 260 261 261 262 262 262 262 262 263 264 265 266 267 268 269 271 272 273 275 277 278 279 280 281 282 283 283 284 285 285 286 286 285 284 283 281 280 279 277 276 275 275 275 274 272 269 266 262 256 250 246 243 243 245 247 250 252 254 255 257 259 261 263 263 262 260 258 256 257 257 256 256 257 256 258 261 264 265 266 265 266 270 273
257 258 259 260 261 262 263 263 264 264 264 264 264 265 266 267 268 269 270 271 272 273 274 276 277 279 280 281 282 283 284 285 285 286 286 286 285 284 283 282 282 281 279 278 276 274 273 272 270 266 261 256 250 245 241 240 242 245 248 250 252 253 255 257 258 260 260 260 260 259 258 255 254 255 257 257 259 261 261 261 263 266 268 269 270 270 270 273
260 261 262 263 263 264 264 264 265 265 265 266 266 267 267 268 269 270 270 271 273 274 275 277 278 279 280 281 282 283 284 285 285 285 285 284 284 284 283 283 282 281 280 277 274 272 269 266 262 256 249 243 240 239 240 244 248 250 251 252 254 255 256 258 258 258 257 256 255 256 257 256 255 258 259 258 260 264 266 267 268 270 272 274 275 275 274 274
262 263 264 264 265 265 265 265 265 265 266 266 267 268 268 269 270 270 271 272 274 275 276 277 278 279 280 281 282 282 283 283 283 282 283 283 283 283 283 283 282 280 277 273 270 266 260 253 246 240 236 235 236 240 245 248 250 252 253 255 256 256 257 257 257 255 254 254 256 258 258 258 259 262 264 263 263 267 270 271 272 274 276 277 277 277 277 277
265 265 265 266 266 266 266 266 266 266 266 267 267 267 268 269 270 271 272 273 274 275 276 278 278 279 279 279 280 280 280 280 280 280 281 283 283 283 283 281 278 274 270 265 258 250 242 234 230 229 228 233 241 245 250 254 255 257 259 260 260 259 258 258 257 257 256 257 261 264 265 263 262 263 267 268 268 269 273 275 275 276 276 276 276 277 279 279
266 266 266 266 266 266 265 265 265 265 265 265 266 267 267 268 270 271 272 274 275 276 276 276 276 276 276 276 276 276 276 277 278 279 280 280 280 280 278 274 273 274 269 237 172 152 144 135 110 81 350 288 275 269 270 268 266 265 265 265 263 262 263 263 264 265 265 265 268 272 273 270 265 264 268 271 271 272 275 277 277 276 275 275 276 277 278 279
266 265 265 265 264 263 263 263 263 263 263 264 265 266 267 268 270 271 272 273 273 273 273 273 272 272 272 272 272 271 272 273 272 272 274 276 284 331 50 74 79 81 81 80 80 75 70 63 55 46 29 3 324 302 290 283 280 277 274 275 273 271 273 274 273 273 273 272 271 273 277 275 270 267 268 270 272 273 275 276 276 276 276 277 278 278 279 279
263 262 261 261 260 260 260 260 260 260 261 262 263 264 265 267 267 268 269 269 269 269 268 268 267 267 266 265 263 261 258 253 237 137 97 90 87 86 84 82 81 78 73 69 65 59 54 48 41 27 8 347 324 312 303 296 294 292 288 285 282 279 277 277 276 275 275 274 272 272 277 277 274 270 268 269 271 273 273 274 275 277 278 279 279 280 280 281
259 257 255 255 254 254 254 254 255 256 257 258 259 260 260 261 262 263 263 263 262 262 261 259 257 254 247 237 216 172 130 113 104 98 95 92 88 83 79 74 71 66 61 57 50 42 34 24 13 358 345 331 319 310 303 298 294 290 287 283 282 279 275 274 274 273 273 272 270 268 272 277 277 275 272 270 271 271 272 272 273 276 278 279 280 281 281 282
252 249 246 244 242 241 240 241 242 244 246 248 250 251 252 252 253 254 254 253 250 246 239 228 211 186 155 136 122 113 108 105 101 97 92 87 81 74 68 63 58 53 48 43 34 23 12 357 343 330 319 310 303 297 293 290 287 285 282 280 280 279 276 272 272 273 272 271 270 268 268 273 278 279 278 276 274 273 272 272 273 275 277 278 279 280 281 282
236 231 226 220 214 211 209 211 215 219 224 228 231 233 233 232 229 225 217 207 193 174 157 141 131 124 117 114 112 110 106 102 97 92 85 79 73 67 61 54 48 41 33 23 10 357 342 328 319 310 302 297 293 289 287 284 283 282 280 277 275 275 275 272 270 271 272 273 273 271 270 271 275 279 281 281 280 278 277 276 276 277 278 280 281 281 282 282
207 200 192 184 177 174 171 172 176 179 183 185 187 184 176 165 155 146 139 133 129 125 122 118 116 114 111 110 108 106 102 97 92 88 82 76 68 59 50 38 27 18 8 357 343 333 322 312 306 300 295 292 287 284 282 278 276 275 275 275 273 272 273 275 273 271 271 272 273 274 273 272 272 276 280 283 284 284 283 282 280 280 281 282 282 282 282 282
161 157 151 147 144 141 140 140 141 140 140 139 137 134 131 128 126 123 121 119 117 116 114 114 114 111 110 109 106 102 97 92 85 77 67 58 48 36 24 12 2 352 341 330 317 309 302 296 291 287 284 282 279 279 278 276 276 275 274 274 274 273 272 274 276 276 275 274 275 276 276 275 273 274 277 280 283 285 286 286 285 285 284 283 282 282 282 282
128 125 122 120 119 118 118 118 119 119 119 120 119 118 117 117 117 116 115 114 114 114 112 113 112 108 107 105 99 92 86 80 72 62 50 40 29 12 353 333 319 308 299 294 289 286 285 282 281 280 279 278 277 277 277 277 277 278 278 278 278 279 277 275 275 277 278 279 278 278 278 278 277 277 278 279 280 282 283 284 285 285 285 284 284 283 283 283
114 113 110 108 107 106 105 106 106 107 108 109 110 110 110 111 112 112 113 113 112 111 109 107 102 98 97 94 88 84 81 76 72 67 45 5 322 304 295 291 289 285 282 281 280 280 281 281 281 281 281 280 279 278 277 277 277 278 279 279 279 280 281 280 278 277 277 279 281 280 280 280 280 280 281 281 281 282 282 282 282 283 283 283 284 284 284 283
106 106 105 104 103 102 101 101 101 101 102 103 104 106 107 108 110 110 109 107 105 103 102 99 96 94 92 89 86 84 83 74 55 339 304 292 289 291 290 289 289 288 286 285 284 283 282 283 283 283 282 282 282 281 280 279 279 280 280 280 280 280 281 282 282 281 279 279 280 281 281 280 280 281 281 281 282 282 282 282 282 282 282 282 282 283 284 284
99 99 100 101 101 101 102 102 102 102 102 102 102 102 101 103 103 102 101 99 97 96 95 93 92 92 85 79 72 57 29 341 320 308 303 297 292 293 293 291 291 290 289 288 286 285 285 285 284 284 284 284 285 285 285 284 283 283 282 283 283 282 283 283 282 282 280 280 279 280 281 281 281 281 281 281 281 281 282 282 282 282 282 282 282 283 283 284
95 96 97 99 100 101 103 103 103 102 102 101 100 98 97 96 94 94 95 95 92 90 88 86 83 77 64 47 21 354 334 317 308 302 300 297 295 293 292 291 290 290 289 288 288 287 286 286 286 286 286 287 287 288 289 288 287 286 285 284 284 283 283 284 284 283 282 281 280 281 282 282 282 282 283 282 282 282 282 282 283 283 283 283 283 283 283 283
95 95 96 97 99 100 101 101 102 102 101 100 98 97 96 93 90 88 86 85 83 79 75 68 56 34 8 351 333 321 314 310 304 300 297 295 293 292 291 291 291 291 291 290 290 290 290 290 290 290 290 290 290 290 289 289 288 287 285 284 284 283 282 282 283 284 284 283 283 283 284 285 285 285 286 285 285 285 284 283 283 283 283 283 283 284 284 284
95 96 96 97 97 97 99 100 101 101 100 98 96 95 94 92 91 88 81 75 71 64 49 32 17 355 333 319 316 310 305 303 301 299 298 297 297 296 294 293 293 294 295 294 294 294 293 292 291 291 291 291 291 291 290 290 290 289 288 286 285 285 284 283 282 283 284 284 284 284 285 287 287 287 288 288 287 287 287 286 286 285 285 285 285 285 285 285
97 98 97 97 97 97 100 100 101 100 99 98 96 94 92 90 88 81 72 62 49 33 10 350 334 329 322 311 309 308 303 302 302 302 302 301 302 302 301 298 296 296 296 295 295 295 294 294 293 293 292 292 291 291 290 290 290 290 290 290 289 289 288 287 286 286 286 286 286 286 286 287 288 288 288 288 288 288 287 287 287 287 287 287 287 286 286 286
100 100 99 99 100 102 103 102 101 100 97 93 90 88 83 77 69 54 37 20 5 350 338 332 322 317 317 312 309 308 305 303 303 303 303 303 303 303 303 301 300 299 298 297 296 296 295 295 294 294 293 293 292 292 291 291 291 291 291 291 291 290 290 290 290 290 289 289 289 289 289 288 288 287 287 286 286 286 286 285 286 286 286 287 287 287 287 287
102 103 103 105 107 107 105 101 98 93 87 82 75 68 57 42 29 14 1 350 342 333 324 322 320 316 314 312 309 308 307 307 306 304 304 304 303 303 302 301 300 300 299 298 297 297 296 296 296 296 296 295 294 294 293 292 292 292 291 291 291 291 292 292 292 292 292 292 292 291 291 290 289 288 286 285 285 285 285 285 285 285 285 286 286 286 287 288
105 106 107 108 109 106 101 94 87 79 70 61 49 35 20 7 357 347 341 335 331 329 324 320 318 316 314 312 311 308 307 307 307 306 305 304 303 303 302 301 301 301 301 300 300 299 299 298 298 297 296 295 294 294 293 293 293 293 293 293 293 293 292 292 292 293 293 293 293 292 291 291 291 290 288 287 287 286 286 286 286 286 286 286 287 288 288 289
108 108 108 107 105 101 93 82 68 57 44 31 18 5 356 349 344 339 333 330 328 325 323 320 318 316 315 313 312 310 309 308 307 307 306 306 305 304 304 303 302 302 300 299 299 298 298 298 298 298 298 297 297 297 296 296 295 295 295 294 294 293 293 292 292 293 293 294 294 293 293 293 293 292 291 290 289 289 288 288 288 288 287 287 288 288 287 287
108 107 104 98 93 81 65 50 36 25 13 2 353 347 343 338 334 332 329 325 323 320 318 317 315 314 313 312 311 310 309 308 307 307 306 306 305 304 304 303 302 301 300 299 299 300 301 301 302 301 300 299 299 298 297 297 296 295 295 294 294 294 294 294 295 295 296 297 296 295 295 296 295 294 293 291 290 290 289 288 288 288 288 287 286 285 284 283
103 97 86 73 58 41 27 17 8 360 353 346 341 337 335 332 329 327 325 322 320 318 316 315 313 312 311 310 310 309 309 308 308 308 308 308 307 307 307 307 307 307 307 306 306 305 304 303 302 301 300 299 299 299 299 299 298 298 296 296 295 295 295 296 296 297 298 298 297 296 296 296 295 294 292 291 290 290 290 289 289 289 289 289 287 286 285 284
85 72 54 39 26 14 3 356 350 346 341 337 335 333 331 329 327 326 324 323 321 318 316 315 314 313 312 312 311 310 310 310 310 309 309 309 308 307 306 306 305 304 304 304 304 304 303 302 302 302 301 301 301 301 301 301 301 300 298 297 296 296 295 295 295 296 296 296 296 295 294 295 295 294 293 291 290 291 292 292 292 293 293 292 291 290 289 288
51 34 20 10 2 354 348 345 343 339 337 335 333 332 330 329 328 326 324 322 320 319 317 316 315 314 313 313 312 311 311 310 309 308 307 306 305 304 303 302 301 301 301 301 302 302 303 303 303 302 302 301 301 300 300 299 299 298 297 296 296 296 295 295 295 294 293 294 295 296 295 294 294 295 293 291 291 292 292 294 295 295 294 293 291 290 290 289
16 5 358 353 348 346 344 342 340 338 336 334 332 331 330 329 327 325 323 321 319 318 317 316 315 315 314 313 312 311 310 309 308 307 307 306 306 305 305 305 305 305 305 305 305 304 303 303 302 301 301 300 300 300 300 300 299 299 298 298 298 299 299 299 299 297 296 296 298 299 299 298 297 296 294 294 295 295 295 297 298 297 296 294 292 291 291 291
356 350 347 345 342 341 340 339 338 336 334 333 331 329 327 325 324 322 320 318 317 316 316 315 314 313 312 312 311 310 309 309 308 308 308 308 307 307 307 307 307 307 307 306 306 305 305 304 304 303 303 303 303 303 304 303 303 303 302 302 303 303 304 304 304 303 302 302 302 301 300 299 298 298 299 299 299 300 301 302 301 300 299 298 298 297 297 296
345 344 342 340 339 338 337 336 335 334 332 329 327 325 324 322 320 318 317 316 316 315 315 314 313 312 312 311 311 310 310 310 310 309 309 308 308 308 307 307 307 307 306 306 306 306 307 307 307 308 307 307 307 307 308 307 306 305 305 304 305 306 306 306 305 304 303 303 303 300 298 297 294 295 298 298 298 300 301 300 300 299 299 299 300 300 300 300
341 340 338 337 336 334 334 333 332 329 327 325 324 323 321 318 317 316 316 316 315 315 314 313 313 313 313 313 313 313 313 312 312 311 310 309 309 308 308 309 309 309 309 309 309 310 310 311 310 310 310 309 310 310 310 309 308 307 305 305 305 305 304 304 303 302 301 302 301 298 296 294 293 294 295 293 293 295 294 293 293 294 295 296 297 297 298 298
337 336 335 334 332 331 330 329 327 325 324 323 321 318 316 316 316 317 316 316 315 314 314 314 314 315 316 316 315 314 314 313 312 311 311 311 311 311 311 311 312 313 313 313 313 312 312 313 313 312 311 309 310 311 310 309 308 306 305 304 305 305 304 304 304 303 303 303 301 298 296 294 294 294 294 291 291 291 289 289 289 289 290 291 291 292 293 294
334 334 332 330 329 328 327 325 324 324 322 319 315 314 316 317 317 317 316 315 315 315 316 317 317 317 316 316 315 314 313 313 313 312 312 313 313 313 314 314 315 316 316 315 314 313 314 315 314 312 310 309 309 310 310 307 306 305 306 306 306 307 306 306 306 305 305 305 303 301 299 298 297 296 294 293 293 292 291 291 290 290 290 290 289 290 290 291
331 329 328 327 326 325 324 323 322 319 316 314 315 317 318 317 316 316 316 316 317 318 318 318 318 317 316 316 315 314 314 314 314 314 314 315 316 316 317 318 318 317 316 315 314 314 314 315 315 313 312 311 311 312 311 310 309 309 309 310 310 310 309 308 307 306 305 305 303 302 302 302 301 300 298 297 296 295 294 294 294 293 293 292 292 291 291 291
326 326 325 324 323 322 321 320 317 315 316 318 319 318 317 316 317 318 319 320 320 319 319 318 318 317 317 317 316 316 316 316 317 317 318 318 319 319 319 318 317 317 317 316 316 317 316 317 319 318 316 315 314 316 317 316 315 315 315 315 315 314 311 308 307 306 305 305 303 302 303 304 303 301 300 298 297 296 296 296 295 295 294 294 294 294 293 293
324 323 322 321 320 319 318 316 316 317 319 319 318 317 318 319 320 320 320 320 320 319 319 319 318 318 318 318 318 319 319 320 321 321 321 321 320 319 318 318 318 319 321 322 322 322 322 323 325 325 324 323 322 323 322 320 319 319 319 319 317 314 312 310 308 306 305 306 304 302 303 303 302 301 300 299 298 298 298 297 297 296 296 295 295 296 296 295
321 320 319 319 318 317 317 318 319 319 318 317 318 319 321 321 321 320 320 320 320 320 319 319 319 319 320 320 321 323 323 324 324 323 322 321 320 321 321 323 325 327 329 329 329 329 328 328 328 328 327 326 326 326 324 321 319 315 313 313 311 309 308 309 310 309 308 307 305 303 303 303 302 302 301 300 300 300 300 300 299 299 298 298 299 299 299 298
318 317 317 317 317 318 320 320 319 317 317 319 321 321 321 320 320 320 320 320 320 320 320 321 322 322 323 324 325 325 325 324 323 323 324 325 326 328 330 332 333 335 335 335 335 336 334 333 333 332 328 324 321 319 315 310 310 309 310 312 311 310 310 310 311 310 309 308 306 305 304 303 303 302 301 301 301 301 300 300 299 299 299 301 301 301 300 299
317 317 318 318 319 320 319 318 318 319 320 321 320 320 320 321 321 321 321 321 321 322 323 323 324 324 325 326 326 326 325 326 327 328 330 332 334 335 337 339 340 340 340 340 340 340 340 340 340 339 336 332 329 328 323 319 317 317 319 321 321 319 317 315 314 312 310 308 306 305 304 303 303 303 302 302 302 302 301 300 299 299 300 301 301 300 299 297
318 318 319 320 320 320 319 320 321 321 320 320 320 321 321 321 322 322 322 323 323 324 324 325 326 327 328 328 329 330 330 331 333 334 336 339 340 340 341 343 343 343 344 344 344 344 344 345 345 345 342 337 336 337 334 331 329 327 326 325 323 322 320 317 315 313 310 308 306 305 304 304 304 304 304 304 304 304 303 301 299 299 299 300 300 299 299 298
317 318 319 320 321 322 323 322 321 320 320 321 322 322 323 323 323 324 324 324 324 325 326 327 328 329 330 332 334 335 337 338 338 340 342 344 344 344 345 345 345 345 345 345 345 345 347 347 347 349 345 339 337 338 335 333 332 330 329 326 324 322 320 318 315 312 310 308 306 305 305 305 305 305 305 305 305 304 304 302 301 301 301 301 301 301 301 301
319 320 322 323 324 323 322 321 320 320 321 322 323 324 324 324 324 324 324 325 325 326 327 328 329 331 333 335 337 339 340 341 342 343 344 346 346 346 346 347 346 346 346 345 345 346 347 347 348 351 348 342 339 340 337 334 332 331 329 327 324 322 319 316 314 311 310 309 308 306 306 305 305 305 305 305 305 305 304 302 302 302 303 303 304 304 304 303
322 324 326 325 323 321 321 321 321 322 323 324 325 325 324 324 324 325 325 326 326 327 328 330 332 335 336 338 339 340 340 340 341 343 345 346 345 346 347 347 346 346 346 345 345 346 347 347 347 350 350 345 342 342 339 335 333 331 329 327 324 321 319 317 315 313 312 310 308 307 307 306 306 307 307 307 307 307 307 306 306 306 306 307 308 308 307 305
326 327 326 324 322 321 321 322 322 324 325 325 325 325 324 325 326 326 326 327 328 330 332 336 338 339 340 341 341 341 342 343 344 345 346 347 346 346 347 347 346 346 345 345 344 345 346 347 346 347 350 347 343 343 340 336 333 331 329 326 323 320 319 317 315 312 310 308 307 307 308 309 309 309 310 311 312 314 315 313 311 310 310 311 311 310 309 308
327 326 324 323 322 322 322 323 324 325 325 325 325 326 326 327 328 328 329 331 334 337 339 341 342 342 343 344 344 345 346 348 348 348 348 348 348 347 348 348 346 345 345 344 344 344 345 345 345 346 349 348 344 342 340 336 333 331 327 323 320 317 316 314 312 310 309 308 309 311 312 313 313 314 316 317 317 317 316 313 312 313 314 313 312 311 311 311
325 324 323 323 322 322 323 325 325 326 327 327 328 329 329 330 330 331 333 336 339 341 343 344 344 345 346 347 348 349 349 350 350 349 349 349 348 348 348 347 345 344 344 344 343 344 344 344 345 345 347 348 344 342 340 336 333 330 325 321 318 316 314 313 313 314 313 314 315 316 318 319 319 319 319 319 318 317 316 313 313 314 314 313 312 312 312 312